Weather History for KHCD - January, 2014

Change the Weather History Date:

Sunday, January 19, 2014

  Actual Average Record
Temperature  
Mean Temperature 28 °F -  
Max Temperature 36 °F 21 °F 48 °F (1981)
Min Temperature 20 °F 0 °F -34 °F (1970)
Degree Days  
Heating Degree Days 37    
Moisture  
Dew Point 25 °F    
Average Humidity 83    
Maximum Humidity 95    
Minimum Humidity 74    
Precipitation  
Precipitation 0.03 in - - ()
Sea Level Pressure  
Sea Level Pressure 29.58 in    
Wind  
Wind Speed 11 mph (West)    
Max Wind Speed 23 mph    
Max Gust Speed 26 mph    
Visibility 10 miles    
Events      
Averages and records for this station are not official NWS values.
T = Trace of Precipitation, MM = Missing Value Source: NWS Daily Summary

Daily Weather History Graph

Daily Weather History Graph

Search for Another Location

Airport or City:

Trip Planner

Search our weather history database for the weather conditions in past years. The results will help you decide how hot, cold, wet, or windy it might be!

Date:

Astronomy

Jan. 19, 2014 Rise Set
Actual Time 7:49 AM CST 5:07 PM CST
Civil Twilight 7:16 AM CST 5:40 PM CST
Nautical Twilight 6:40 AM CST 6:16 PM CST
Astronomical Twilight 6:06 AM CST 6:51 PM CST
Moon 8:58 PM CST (1/19) 9:09 AM CST (1/19)
Length of Visible Light 10h 23m
Length of Day
9h 18m
Waning Gibbous, 89% of the Moon is Illuminated
Jan 19
Waning Gibbous
Jan 23
Last Quarter
Jan 30
New
Feb 6
First Quarter
Feb 14
Full

Hourly Weather History & Observations

Time (CST) Temp. Windchill Dew Point Humidity Pressure Visibility Wind Dir Wind Speed Gust Speed Precip Events Conditions
12:13 AM 20.5 °F 9.2 °F 17.8 °F 89% 29.71 in 10.0 mi SSW 10.4 mph - N/A   Clear
12:33 AM 21.7 °F 10.2 °F 19.0 °F 89% 29.69 in 10.0 mi SSW 11.5 mph 16.1 mph N/A   Clear
12:53 AM 23.2 °F 12.0 °F 20.3 °F 89% 29.67 in 10.0 mi SW 11.5 mph 17.3 mph N/A   Clear
1:13 AM 24.3 °F 13.3 °F 21.6 °F 89% 29.65 in 10.0 mi SW 11.5 mph 17.3 mph N/A   Clear
1:34 AM 25.5 °F 14.9 °F 22.3 °F 88% 29.65 in 10.0 mi WSW 11.5 mph - N/A   Clear
1:53 AM 25.9 °F 14.3 °F 22.5 °F 87% 29.63 in 10.0 mi SW 13.8 mph 19.6 mph N/A   Clear
2:13 AM 25.7 °F 14.6 °F 22.3 °F 87% 29.62 in 10.0 mi SW 12.7 mph 19.6 mph N/A   Clear
2:33 AM 25.7 °F 14.6 °F 22.1 °F 86% 29.62 in 10.0 mi SW 12.7 mph 17.3 mph N/A   Clear
2:53 AM 26.1 °F 14.0 °F 22.1 °F 85% 29.60 in 10.0 mi SW 15.0 mph - N/A   Clear
3:13 AM 26.6 °F 16.2 °F 22.5 °F 84% 29.60 in 10.0 mi WSW 11.5 mph 20.7 mph N/A   Clear
3:33 AM 27.5 °F 16.3 °F 22.6 °F 82% 29.60 in 10.0 mi WSW 13.8 mph 18.4 mph N/A   Clear
3:53 AM 27.5 °F 15.4 °F 22.8 °F 83% 29.59 in 10.0 mi WSW 16.1 mph 21.9 mph N/A   Clear
4:13 AM 27.3 °F 16.1 °F 22.5 °F 82% 29.58 in 10.0 mi WSW 13.8 mph - N/A   Clear
4:33 AM 27.3 °F 17.1 °F 22.3 °F 81% 29.58 in 10.0 mi WSW 11.5 mph - N/A   Clear
4:53 AM 26.2 °F 16.4 °F 21.6 °F 82% 29.56 in 10.0 mi WSW 10.4 mph - N/A   Clear
5:12 AM 27.5 °F 17.4 °F 22.3 °F 81% 29.56 in 10.0 mi WSW 11.5 mph - N/A   Clear
5:33 AM 25.3 °F 14.7 °F 20.7 °F 82% 29.56 in 10.0 mi West 11.5 mph - N/A   Clear
5:53 AM 25.5 °F 13.8 °F 20.7 °F 82% 29.56 in 10.0 mi West 13.8 mph - N/A   Clear
6:13 AM 27.5 °F 17.4 °F 21.9 °F 80% 29.56 in 10.0 mi West 11.5 mph - N/A   Clear
6:33 AM 27.0 °F 15.2 °F 21.7 °F 81% 29.56 in 10.0 mi West 15.0 mph - N/A   Clear
6:53 AM 27.5 °F 16.3 °F 22.1 °F 80% 29.54 in 10.0 mi West 13.8 mph - N/A   Clear
7:13 AM 27.3 °F 16.6 °F 22.1 °F 81% 29.53 in 10.0 mi West 12.7 mph - N/A   Clear
7:33 AM 26.2 °F 17.1 °F 21.4 °F 82% 29.54 in 10.0 mi West 9.2 mph - N/A   Clear
7:53 AM 25.5 °F 16.2 °F 20.7 °F 82% 29.54 in 10.0 mi West 9.2 mph - N/A   Clear
8:13 AM 25.5 °F 16.2 °F 21.2 °F 84% 29.53 in 10.0 mi WSW 9.2 mph - N/A   Clear
8:34 AM 26.6 °F 19.1 °F 22.3 °F 84% 29.53 in 10.0 mi WSW 6.9 mph - N/A   Clear
8:53 AM 27.5 °F 16.8 °F 23.0 °F 83% 29.54 in 10.0 mi West 12.7 mph - N/A   Clear
9:13 AM 28.2 °F 17.2 °F 23.5 °F 83% 29.55 in 10.0 mi West 13.8 mph - N/A   Clear
9:34 AM 29.5 °F 18.4 °F 24.1 °F 80% 29.57 in 10.0 mi West 15.0 mph - N/A   Clear
9:53 AM 29.8 °F 18.9 °F 23.9 °F 79% 29.57 in 10.0 mi West 15.0 mph - N/A   Clear
10:13 AM 30.4 °F 20.5 °F 24.3 °F 78% 29.56 in 10.0 mi West 12.7 mph - N/A   Clear
10:34 AM 31.6 °F 22.6 °F 25.5 °F 78% 29.55 in 10.0 mi West 11.5 mph - N/A   Clear
10:53 AM 32.2 °F 28.9 °F 25.7 °F 77% 29.52 in 10.0 mi WSW 3.5 mph - N/A   Clear
11:13 AM 32.9 °F 26.7 °F 26.6 °F 78% 29.50 in 10.0 mi WSW 6.9 mph - N/A   Clear
11:33 AM 34.3 °F 27.7 °F 26.8 °F 74% 29.51 in 10.0 mi WSW 8.1 mph - 0.01 in   Clear
11:54 AM 34.0 °F 27.2 °F 27.9 °F 78% 29.51 in 10.0 mi WSW 8.1 mph - 0.03 in   Clear
12:13 PM 34.7 °F 26.4 °F 28.4 °F 78% 29.50 in 10.0 mi WSW 11.5 mph - N/A   Clear
12:33 PM 35.4 °F 26.4 °F 29.1 °F 78% 29.50 in 10.0 mi West 13.8 mph - N/A   Clear
12:53 PM 35.1 °F 26.9 °F 29.3 °F 80% 29.49 in 10.0 mi West 11.5 mph - N/A   Clear
1:13 PM 36.1 °F 28.7 °F 29.5 °F 77% 29.47 in 10.0 mi West 10.4 mph - N/A   Clear
1:33 PM 36.0 °F 30.3 °F 29.5 °F 77% 29.44 in 10.0 mi WSW 6.9 mph - N/A   Clear
1:54 PM 35.6 °F 27.5 °F 29.8 °F 80% 29.47 in 10.0 mi West 11.5 mph - N/A   Clear
2:13 PM 35.8 °F 27.3 °F 30.2 °F 80% 29.46 in 10.0 mi West 12.7 mph - N/A   Clear
2:33 PM 35.6 °F 27.5 °F 30.0 °F 80% 29.46 in 10.0 mi West 11.5 mph - N/A   Clear
2:53 PM 35.8 °F 27.8 °F 30.2 °F 80% 29.48 in 10.0 mi West 11.5 mph - N/A   Clear
3:13 PM 36.5 °F 29.2 °F 29.8 °F 77% 29.48 in 10.0 mi WNW 10.4 mph - N/A   Clear
3:33 PM 36.1 °F 28.2 °F 29.8 °F 78% 29.49 in - West 11.5 mph - N/A   Clear
3:53 PM 35.6 °F 27.5 °F 29.8 °F 80% 29.50 in 10.0 mi West 11.5 mph - N/A   Clear
4:13 PM 35.4 °F 26.8 °F 29.8 °F 80% 29.52 in 10.0 mi West 12.7 mph - N/A   Clear
4:33 PM 35.6 °F 27.5 °F 29.8 °F 80% 29.53 in 10.0 mi West 11.5 mph - N/A   Clear
4:53 PM 35.2 °F 26.6 °F 29.8 °F 81% 29.55 in 10.0 mi WNW 12.7 mph 17.3 mph N/A   Clear
5:14 PM 35.1 °F 23.3 °F 28.8 °F 78% 29.57 in 10.0 mi NW 23.0 mph 26.5 mph N/A   Scattered Clouds
5:34 PM 33.8 °F 23.5 °F 28.4 °F 81% 29.59 in 10.0 mi NW 16.1 mph 23.0 mph N/A   Overcast
5:53 PM 33.4 °F 22.7 °F 28.0 °F 81% 29.59 in 10.0 mi WNW 17.3 mph - N/A   Overcast
6:14 PM 32.7 °F 23.4 °F 27.3 °F 81% 29.60 in 10.0 mi NW 12.7 mph 20.7 mph N/A   Mostly Cloudy
6:33 PM 32.0 °F 23.6 °F 27.0 °F 82% 29.63 in 10.0 mi WNW 10.4 mph - N/A   Mostly Cloudy
6:53 PM 32.0 °F 23.6 °F 27.3 °F 83% 29.64 in 10.0 mi WNW 10.4 mph - N/A   Overcast
7:13 PM 32.0 °F 23.0 °F 27.0 °F 82% 29.64 in 10.0 mi WNW 11.5 mph - N/A   Mostly Cloudy
7:33 PM 31.1 °F 23.1 °F 26.4 °F 83% 29.65 in 10.0 mi WNW 9.2 mph - N/A   Scattered Clouds
7:53 PM 29.8 °F 23.0 °F 25.7 °F 85% 29.66 in 10.0 mi West 6.9 mph - N/A   Clear
8:13 PM 27.1 °F 18.9 °F 24.1 °F 88% 29.66 in 10.0 mi West 8.1 mph - N/A   Clear
8:33 PM 27.3 °F 17.1 °F 25.0 °F 91% 29.67 in 10.0 mi West 11.5 mph - N/A   Clear
8:53 PM 28.8 °F 20.9 °F 25.7 °F 88% 29.68 in 10.0 mi WNW 8.1 mph - N/A   Clear
9:13 PM 28.2 °F 20.2 °F 25.3 °F 89% 29.69 in 10.0 mi WNW 8.1 mph - N/A   Clear
9:33 PM 27.5 °F 18.6 °F 25.0 °F 90% 29.70 in 10.0 mi WNW 9.2 mph - N/A   Clear
9:53 PM 27.3 °F 19.1 °F 24.6 °F 90% 29.70 in 10.0 mi WNW 8.1 mph - N/A   Clear
10:13 PM 28.0 °F 20.0 °F 25.2 °F 89% 29.71 in 10.0 mi West 8.1 mph - N/A   Mostly Cloudy
10:33 PM 28.4 °F 22.2 °F 25.5 °F 89% 29.72 in 10.0 mi WNW 5.8 mph - N/A   Overcast
10:53 PM 28.4 °F 22.2 °F 25.5 °F 89% 29.72 in 10.0 mi West 5.8 mph - N/A   Overcast
11:13 PM 27.9 °F - 25.2 °F 90% 29.72 in 10.0 mi Calm Calm - N/A   Overcast
11:32 PM 25.7 °F 20.1 °F 23.0 °F 89% 29.72 in 10.0 mi West 4.6 mph - N/A   Scattered Clouds
11:53 PM 23.2 °F 17.2 °F 21.9 °F 95% 29.73 in 10.0 mi West 4.6 mph - N/A   Scattered Clouds